Калакан

Россия / Забайкальский край     55°07′29″N   116°45′55″E
темп.,
°C
ветер,
м/с
пор.,
м/с
влажн.,
%
обл.,
%
осадки,
мм/ч
давл.,
гПа
погр.,
м
13 мая, чт
чт1300:00+3с128599 0.1 100683
03:00+1всв1191100 0.1 100718
06:000с219470 0.0 100739
09:00+6с235164 0.0 1005906
12:00+10с3332100 0.0 10032427
15:00+9ссв6640100 0.0 10032124
18:00+7ссв464799 0.0 10061559
21:00+4с4967100 0.1 1008910
14 мая, пт
пт1400:00+1ссз2691100 0.1 1010501
03:00+2сз2399100 0.8 1011120
06:00+1сз1492100 0.3 1011227
09:00+5с4762100 0.3 10111167
12:00+8ссз4744100 0.0 10091789
15:00+11с4636100 0.0 10072072
18:00+11с4634100 0.0 10072101
21:00+6ссз23516 0.0 101142
15 мая, сб
сб1500:00+2сз11635 0.0 101310
03:000зсз11685 0.0 101410
06:00−1зсз11690 0.0 101510
09:00+7сз23410 0.0 1013710
12:00+12сз34260 0.0 10091943
15:00+15з24210 0.0 10062319
18:00+15зюз252014 0.0 10032902
21:00+9юз333885 0.0 100355
16 мая, вс
вс1600:00+7зюз3104617 0.0 1003260
03:00+3юз39527 0.0 1004297
06:00+2з26615 0.0 1003158
09:00+9зсз46410 0.0 10011049
12:00+13зюз61023100 0.0 9983415
15:00+14зсз91617100 0.0 9964128
18:00+10ссз792775 0.0 9992103
21:00+5сз5123111 0.0 10031251
17 мая, пн
пн1700:00+2ссз39485 0.0 1006349
03:00−1з116155 0.0 100810
06:00−1юз116174 0.0 100826
09:00+6зюз2437100 0.0 10051306
12:00+9з3627100 0.0 10032575
15:00+11зсз4922100 0.0 10003246
18:00+10ссз572698 0.0 9992609
21:00+6с1138100 0.0 100012